contact:dominique.lefevre@mio.osupytheas.fr, maurice.libes@osupytheas.fr, didier.mallarino@osupytheas.fr
Project:EMSO http://www.emso-fr.org/EMSO-France
Depth: 2436.0 m
Title:EMSO Ligure Ouest : Data MII capteur MICROCAT
DateTime_Computer,Latitude,Longitude,Temperature,Conductivity,Pressure,DateTime_Instrument
DateTime_Computer,Latitude,Longitude,degC,S m-1,dbar,DateTime_Instrument
2023-06-28T00:02:07Z,42.805,6.029,13.3020,4.60081,2470.763,2023-6-28T02:04:23Z
2023-06-28T00:05:11Z,42.805,6.029,13.3023,4.60082,2470.74,2023-6-28T02:07:26Z
2023-06-28T00:08:14Z,42.805,6.029,13.3020,4.60084,2470.717,2023-6-28T02:10:29Z
2023-06-28T00:11:17Z,42.805,6.029,13.3026,4.60084,2470.74,2023-6-28T02:13:32Z
2023-06-28T00:14:20Z,42.805,6.029,13.3022,4.60085,2470.763,2023-6-28T02:16:35Z
2023-06-28T00:17:23Z,42.805,6.029,13.3026,4.60083,2470.754,2023-6-28T02:19:38Z
2023-06-28T00:20:26Z,42.805,6.029,13.3024,4.60084,2470.763,2023-6-28T02:22:41Z
2023-06-28T00:23:29Z,42.805,6.029,13.3023,4.60083,2470.754,2023-6-28T02:25:44Z
2023-06-28T00:26:32Z,42.805,6.029,13.3022,4.60081,2470.73,2023-6-28T02:28:47Z
2023-06-28T00:29:35Z,42.805,6.029,13.3022,4.60084,2470.73,2023-6-28T02:31:50Z
2023-06-28T00:32:38Z,42.805,6.029,13.3026,4.60081,2470.763,2023-6-28T02:34:53Z
2023-06-28T00:35:41Z,42.805,6.029,13.3024,4.60084,2470.74,2023-6-28T02:37:57Z
2023-06-28T00:38:44Z,42.805,6.029,13.3021,4.60081,2470.777,2023-6-28T02:41:00Z
2023-06-28T00:41:48Z,42.805,6.029,13.3019,4.60081,2470.74,2023-6-28T02:44:03Z
2023-06-28T00:44:51Z,42.805,6.029,13.3021,4.60081,2470.777,2023-6-28T02:47:06Z
2023-06-28T00:47:54Z,42.805,6.029,13.3023,4.60084,2470.74,2023-6-28T02:50:09Z
2023-06-28T00:50:57Z,42.805,6.029,13.3024,4.60084,2470.777,2023-6-28T02:53:12Z
2023-06-28T00:54:00Z,42.805,6.029,13.3023,4.60084,2470.787,2023-6-28T02:56:15Z
2023-06-28T00:57:03Z,42.805,6.029,13.3019,4.60081,2470.763,2023-6-28T02:59:18Z
2023-06-28T01:00:06Z,42.805,6.029,13.3019,4.60081,2470.777,2023-6-28T03:02:21Z
2023-06-28T01:03:09Z,42.805,6.029,13.3027,4.60081,2470.763,2023-6-28T03:05:24Z
2023-06-28T01:06:12Z,42.805,6.029,13.3023,4.60081,2470.74,2023-6-28T03:08:27Z
2023-06-28T01:09:15Z,42.805,6.029,13.3023,4.60083,2470.763,2023-6-28T03:11:30Z
2023-06-28T01:12:18Z,42.805,6.029,13.3024,4.60084,2470.777,2023-6-28T03:14:34Z
2023-06-28T01:15:21Z,42.805,6.029,13.3022,4.60084,2470.75,2023-6-28T03:17:37Z
2023-06-28T01:18:25Z,42.805,6.029,13.3021,4.60084,2470.74,2023-6-28T03:20:40Z
2023-06-28T01:21:28Z,42.805,6.029,13.3022,4.60084,2470.763,2023-6-28T03:23:43Z
2023-06-28T01:24:31Z,42.805,6.029,13.3024,4.60084,2470.787,2023-6-28T03:26:46Z
2023-06-28T01:27:34Z,42.805,6.029,13.3025,4.60082,2470.74,2023-6-28T03:29:49Z
2023-06-28T01:30:37Z,42.805,6.029,13.3020,4.60081,2470.763,2023-6-28T03:32:52Z
2023-06-28T01:33:40Z,42.805,6.029,13.3024,4.60083,2470.8,2023-6-28T03:35:55Z
2023-06-28T01:36:43Z,42.805,6.029,13.3021,4.60083,2470.763,2023-6-28T03:38:58Z
2023-06-28T01:39:46Z,42.805,6.029,13.3021,4.60084,2470.74,2023-6-28T03:42:01Z
2023-06-28T01:42:49Z,42.805,6.029,13.3021,4.60085,2470.754,2023-6-28T03:45:04Z
2023-06-28T01:45:52Z,42.805,6.029,13.3021,4.60084,2470.754,2023-6-28T03:48:07Z
2023-06-28T01:48:55Z,42.805,6.029,13.3022,4.60086,2470.74,2023-6-28T03:51:11Z
2023-06-28T01:51:58Z,42.805,6.029,13.3024,4.60084,2470.777,2023-6-28T03:54:14Z
2023-06-28T01:55:02Z,42.805,6.029,13.3022,4.60082,2470.787,2023-6-28T03:57:17Z
2023-06-28T01:58:05Z,42.805,6.029,13.3020,4.60088,2470.787,2023-6-28T04:00:20Z
2023-06-28T02:01:08Z,42.805,6.029,13.3025,4.60085,2470.787,2023-6-28T04:03:23Z
2023-06-28T02:04:11Z,42.805,6.029,13.3024,4.60084,2470.777,2023-6-28T04:06:26Z
2023-06-28T02:07:14Z,42.805,6.029,13.3019,4.60084,2470.754,2023-6-28T04:09:29Z
2023-06-28T02:10:17Z,42.805,6.029,13.3025,4.60084,2470.754,2023-6-28T04:12:32Z
2023-06-28T02:13:20Z,42.805,6.029,13.3027,4.60083,2470.763,2023-6-28T04:15:35Z
2023-06-28T02:16:23Z,42.805,6.029,13.3021,4.60084,2470.74,2023-6-28T04:18:38Z
2023-06-28T02:19:26Z,42.805,6.029,13.3024,4.60081,2470.8,2023-6-28T04:21:41Z
2023-06-28T02:22:29Z,42.805,6.029,13.3024,4.60083,2470.787,2023-6-28T04:24:44Z
2023-06-28T02:25:32Z,42.805,6.029,13.3026,4.60081,2470.754,2023-6-28T04:27:48Z
2023-06-28T02:28:35Z,42.805,6.029,13.3023,4.60084,2470.8,2023-6-28T04:30:51Z
2023-06-28T02:31:39Z,42.805,6.029,13.3024,4.60082,2470.763,2023-6-28T04:33:54Z
2023-06-28T02:34:42Z,42.805,6.029,13.3022,4.60084,2470.787,2023-6-28T04:36:57Z
2023-06-28T02:37:45Z,42.805,6.029,13.3022,4.60082,2470.787,2023-6-28T04:40:00Z
2023-06-28T02:40:48Z,42.805,6.029,13.3021,4.60082,2470.74,2023-6-28T04:43:03Z
2023-06-28T02:43:51Z,42.805,6.029,13.3019,4.60082,2470.74,2023-6-28T04:46:06Z
2023-06-28T02:46:54Z,42.805,6.029,13.3026,4.60084,2470.824,2023-6-28T04:49:09Z
2023-06-28T02:49:57Z,42.805,6.029,13.3023,4.60081,2470.777,2023-6-28T04:52:12Z
2023-06-28T02:53:00Z,42.805,6.029,13.3024,4.60081,2470.777,2023-6-28T04:55:15Z
2023-06-28T02:56:03Z,42.805,6.029,13.3021,4.60083,2470.777,2023-6-28T04:58:18Z
2023-06-28T02:59:06Z,42.805,6.029,13.3023,4.60086,2470.777,2023-6-28T05:01:21Z
2023-06-28T03:02:09Z,42.805,6.029,13.3022,4.60084,2470.8,2023-6-28T05:04:24Z
2023-06-28T03:05:12Z,42.805,6.029,13.3024,4.60082,2470.763,2023-6-28T05:07:28Z
2023-06-28T03:08:15Z,42.805,6.029,13.3026,4.60082,2470.763,2023-6-28T05:10:31Z
2023-06-28T03:11:19Z,42.805,6.029,13.3024,4.60084,2470.787,2023-6-28T05:13:34Z
2023-06-28T03:14:22Z,42.805,6.029,13.3023,4.60084,2470.763,2023-6-28T05:16:37Z
2023-06-28T03:17:25Z,42.805,6.029,13.3022,4.60083,2470.8,2023-6-28T05:19:40Z
2023-06-28T03:20:28Z,42.805,6.029,13.3024,4.60084,2470.787,2023-6-28T05:22:43Z
2023-06-28T03:23:31Z,42.805,6.029,13.3025,4.60084,2470.754,2023-6-28T05:25:46Z
2023-06-28T03:26:34Z,42.805,6.029,13.3020,4.60084,2470.74,2023-6-28T05:28:49Z
2023-06-28T03:29:37Z,42.805,6.029,13.3022,4.60081,2470.8,2023-6-28T05:31:52Z
2023-06-28T03:32:40Z,42.805,6.029,13.3021,4.60085,2470.777,2023-6-28T05:34:55Z
2023-06-28T03:35:43Z,42.805,6.029,13.3021,4.60084,2470.74,2023-6-28T05:37:58Z
2023-06-28T03:38:46Z,42.805,6.029,13.3026,4.60085,2470.763,2023-6-28T05:41:02Z
2023-06-28T03:41:49Z,42.805,6.029,13.3024,4.60084,2470.777,2023-6-28T05:44:05Z
2023-06-28T03:44:52Z,42.805,6.029,13.3023,4.60087,2470.8,2023-6-28T05:47:08Z
2023-06-28T03:47:56Z,42.805,6.029,13.3022,4.60086,2470.777,2023-6-28T05:50:11Z
2023-06-28T03:50:59Z,42.805,6.029,13.3024,4.60085,2470.777,2023-6-28T05:53:14Z
2023-06-28T03:54:02Z,42.805,6.029,13.3023,4.60083,2470.777,2023-6-28T05:56:17Z
2023-06-28T03:57:05Z,42.805,6.029,13.3021,4.60086,2470.777,2023-6-28T05:59:20Z
2023-06-28T04:00:08Z,42.805,6.029,13.3019,4.60084,2470.74,2023-6-28T06:02:23Z
2023-06-28T04:03:11Z,42.805,6.029,13.3023,4.60082,2470.763,2023-6-28T06:05:26Z
2023-06-28T04:06:14Z,42.805,6.029,13.3024,4.60082,2470.763,2023-6-28T06:08:29Z
2023-06-28T04:09:17Z,42.805,6.029,13.3021,4.60083,2470.74,2023-6-28T06:11:32Z
2023-06-28T04:12:20Z,42.805,6.029,13.3023,4.60084,2470.787,2023-6-28T06:14:35Z
2023-06-28T04:15:23Z,42.805,6.029,13.3024,4.60083,2470.74,2023-6-28T06:17:38Z
2023-06-28T04:18:26Z,42.805,6.029,13.3027,4.60084,2470.74,2023-6-28T06:20:42Z
2023-06-28T04:21:29Z,42.805,6.029,13.3024,4.60083,2470.763,2023-6-28T06:23:45Z
2023-06-28T04:24:33Z,42.805,6.029,13.3025,4.60085,2470.763,2023-6-28T06:26:48Z
2023-06-28T04:27:36Z,42.805,6.029,13.3022,4.60084,2470.754,2023-6-28T06:29:51Z
2023-06-28T04:30:37Z,42.805,6.029,13.3024,4.60084,2470.763,2023-6-28T06:32:52Z
2023-06-28T04:33:40Z,42.805,6.029,13.3024,4.60083,2470.74,2023-6-28T06:35:55Z
2023-06-28T04:36:43Z,42.805,6.029,13.3021,4.60085,2470.73,2023-6-28T06:38:58Z
2023-06-28T04:39:46Z,42.805,6.029,13.3023,4.60085,2470.74,2023-6-28T06:42:01Z
2023-06-28T04:42:49Z,42.805,6.029,13.3021,4.60084,2470.754,2023-6-28T06:45:04Z
2023-06-28T04:45:52Z,42.805,6.029,13.3023,4.60085,2470.777,2023-6-28T06:48:07Z
2023-06-28T04:48:55Z,42.805,6.029,13.3023,4.60085,2470.717,2023-6-28T06:51:10Z
2023-06-28T04:51:58Z,42.805,6.029,13.3024,4.60085,2470.74,2023-6-28T06:54:14Z
2023-06-28T04:55:01Z,42.805,6.029,13.3023,4.60085,2470.73,2023-6-28T06:57:17Z
2023-06-28T04:58:05Z,42.805,6.029,13.3027,4.60084,2470.74,2023-6-28T07:00:20Z
2023-06-28T05:01:08Z,42.805,6.029,13.3024,4.60084,2470.74,2023-6-28T07:03:23Z
2023-06-28T05:04:11Z,42.805,6.029,13.3023,4.60087,2470.74,2023-6-28T07:06:26Z
2023-06-28T05:07:14Z,42.805,6.029,13.3025,4.60085,2470.763,2023-6-28T07:09:29Z
2023-06-28T05:10:17Z,42.805,6.029,13.3024,4.60084,2470.74,2023-6-28T07:12:32Z
2023-06-28T05:13:20Z,42.805,6.029,13.3024,4.60087,2470.73,2023-6-28T07:15:35Z
2023-06-28T05:16:23Z,42.805,6.029,13.3026,4.60086,2470.717,2023-6-28T07:18:38Z
2023-06-28T05:19:26Z,42.805,6.029,13.3024,4.60085,2470.74,2023-6-28T07:21:41Z
2023-06-28T05:22:29Z,42.805,6.029,13.3026,4.60086,2470.73,2023-6-28T07:24:44Z
2023-06-28T05:25:32Z,42.805,6.029,13.3023,4.60084,2470.717,2023-6-28T07:27:47Z
2023-06-28T05:28:35Z,42.805,6.029,13.3024,4.60084,2470.74,2023-6-28T07:30:51Z
2023-06-28T05:31:38Z,42.805,6.029,13.3026,4.60084,2470.693,2023-6-28T07:33:54Z
2023-06-28T05:34:42Z,42.805,6.029,13.3024,4.60084,2470.717,2023-6-28T07:36:57Z
2023-06-28T05:37:45Z,42.805,6.029,13.3026,4.60083,2470.717,2023-6-28T07:40:00Z
2023-06-28T05:40:48Z,42.805,6.029,13.3025,4.60084,2470.74,2023-6-28T07:43:03Z
2023-06-28T05:43:51Z,42.805,6.029,13.3026,4.60084,2470.74,2023-6-28T07:46:06Z
2023-06-28T05:46:54Z,42.805,6.029,13.3021,4.60084,2470.717,2023-6-28T07:49:09Z
2023-06-28T05:49:57Z,42.805,6.029,13.3025,4.60085,2470.717,2023-6-28T07:52:12Z
2023-06-28T05:53:00Z,42.805,6.029,13.3024,4.60085,2470.754,2023-6-28T07:55:15Z
2023-06-28T05:56:03Z,42.805,6.029,13.3026,4.60084,2470.693,2023-6-28T07:58:18Z
2023-06-28T05:59:06Z,42.805,6.029,13.3021,4.60085,2470.707,2023-6-28T08:01:21Z
2023-06-28T06:02:09Z,42.805,6.029,13.3027,4.60084,2470.693,2023-6-28T08:04:24Z
2023-06-28T06:05:12Z,42.805,6.029,13.3024,4.60082,2470.717,2023-6-28T08:07:28Z
2023-06-28T06:08:15Z,42.805,6.029,13.3024,4.60082,2470.707,2023-6-28T08:10:31Z
2023-06-28T06:11:19Z,42.805,6.029,13.3022,4.60084,2470.703,2023-6-28T08:13:34Z
2023-06-28T06:14:22Z,42.805,6.029,13.3024,4.60086,2470.73,2023-6-28T08:16:37Z
2023-06-28T06:17:25Z,42.805,6.029,13.3023,4.60085,2470.73,2023-6-28T08:19:40Z
2023-06-28T06:20:28Z,42.805,6.029,13.3023,4.60084,2470.707,2023-6-28T08:22:43Z
2023-06-28T06:23:31Z,42.805,6.029,13.3024,4.60084,2470.73,2023-6-28T08:25:46Z
2023-06-28T06:26:34Z,42.805,6.029,13.3021,4.60084,2470.707,2023-6-28T08:28:49Z
2023-06-28T06:29:37Z,42.805,6.029,13.3027,4.60086,2470.693,2023-6-28T08:31:52Z
2023-06-28T06:32:40Z,42.805,6.029,13.3026,4.60085,2470.703,2023-6-28T08:34:55Z
2023-06-28T06:35:43Z,42.805,6.029,13.3021,4.60084,2470.717,2023-6-28T08:37:58Z
2023-06-28T06:38:46Z,42.805,6.029,13.3024,4.60085,2470.717,2023-6-28T08:41:02Z
2023-06-28T06:41:49Z,42.805,6.029,13.3024,4.60085,2470.693,2023-6-28T08:44:05Z
2023-06-28T06:44:52Z,42.805,6.029,13.3028,4.60083,2470.707,2023-6-28T08:47:08Z
2023-06-28T06:47:56Z,42.805,6.029,13.3025,4.60084,2470.67,2023-6-28T08:50:11Z
2023-06-28T06:50:59Z,42.805,6.029,13.3023,4.60084,2470.73,2023-6-28T08:53:14Z
2023-06-28T06:54:02Z,42.805,6.029,13.3023,4.60082,2470.73,2023-6-28T08:56:17Z
2023-06-28T06:57:05Z,42.805,6.029,13.3025,4.60082,2470.684,2023-6-28T08:59:20Z
2023-06-28T07:00:08Z,42.805,6.029,13.3025,4.60081,2470.693,2023-6-28T09:02:23Z
2023-06-28T07:03:11Z,42.805,6.029,13.3021,4.60082,2470.693,2023-6-28T09:05:26Z
2023-06-28T07:06:14Z,42.805,6.029,13.3023,4.60083,2470.693,2023-6-28T09:08:29Z
2023-06-28T07:09:17Z,42.805,6.029,13.3022,4.60082,2470.717,2023-6-28T09:11:32Z
2023-06-28T07:12:20Z,42.805,6.029,13.3024,4.60084,2470.717,2023-6-28T09:14:35Z
2023-06-28T07:15:23Z,42.805,6.029,13.3024,4.60084,2470.693,2023-6-28T09:17:39Z
2023-06-28T07:18:26Z,42.805,6.029,13.3026,4.60083,2470.693,2023-6-28T09:20:42Z
2023-06-28T07:21:29Z,42.805,6.029,13.3024,4.60082,2470.693,2023-6-28T09:23:45Z
2023-06-28T07:24:33Z,42.805,6.029,13.3022,4.60084,2470.707,2023-6-28T09:26:48Z
2023-06-28T07:27:36Z,42.805,6.029,13.3023,4.60083,2470.707,2023-6-28T09:29:51Z
2023-06-28T07:30:39Z,42.805,6.029,13.3026,4.60082,2470.707,2023-6-28T09:32:54Z
2023-06-28T07:33:42Z,42.805,6.029,13.3026,4.60082,2470.707,2023-6-28T09:35:57Z
2023-06-28T07:36:45Z,42.805,6.029,13.3022,4.60083,2470.693,2023-6-28T09:39:00Z
2023-06-28T07:39:48Z,42.805,6.029,13.3026,4.60082,2470.684,2023-6-28T09:42:03Z
2023-06-28T07:42:51Z,42.805,6.029,13.3021,4.60084,2470.684,2023-6-28T09:45:06Z
2023-06-28T07:45:54Z,42.805,6.029,13.3024,4.60084,2470.693,2023-6-28T09:48:09Z
2023-06-28T07:48:57Z,42.805,6.029,13.3021,4.60082,2470.684,2023-6-28T09:51:12Z
2023-06-28T07:52:00Z,42.805,6.029,13.3025,4.60081,2470.67,2023-6-28T09:54:16Z
2023-06-28T07:55:03Z,42.805,6.029,13.3023,4.60082,2470.646,2023-6-28T09:57:19Z
2023-06-28T07:58:06Z,42.805,6.029,13.3024,4.60081,2470.646,2023-6-28T10:00:22Z
2023-06-28T08:01:10Z,42.805,6.029,13.3023,4.60081,2470.646,2023-6-28T10:03:25Z
2023-06-28T08:04:13Z,42.805,6.029,13.3024,4.60084,2470.693,2023-6-28T10:06:28Z
2023-06-28T08:07:16Z,42.805,6.029,13.3023,4.60083,2470.646,2023-6-28T10:09:31Z
2023-06-28T08:10:19Z,42.805,6.029,13.3024,4.60084,2470.684,2023-6-28T10:12:34Z
2023-06-28T08:13:22Z,42.805,6.029,13.3022,4.60084,2470.67,2023-6-28T10:15:37Z
2023-06-28T08:16:25Z,42.805,6.029,13.3024,4.60082,2470.684,2023-6-28T10:18:40Z
2023-06-28T08:19:28Z,42.805,6.029,13.3029,4.60084,2470.624,2023-6-28T10:21:43Z
2023-06-28T08:22:31Z,42.805,6.029,13.3022,4.60082,2470.661,2023-6-28T10:24:46Z
2023-06-28T08:25:34Z,42.805,6.029,13.3024,4.60083,2470.67,2023-6-28T10:27:49Z
2023-06-28T08:28:37Z,42.805,6.029,13.3028,4.60083,2470.693,2023-6-28T10:30:53Z
2023-06-28T08:31:39Z,42.805,6.029,13.3023,4.60081,2470.656,2023-6-28T10:33:55Z
2023-06-28T08:34:43Z,42.805,6.029,13.3024,4.60083,2470.684,2023-6-28T10:36:58Z
2023-06-28T08:37:46Z,42.805,6.029,13.3021,4.60084,2470.646,2023-6-28T10:40:01Z
2023-06-28T08:40:49Z,42.805,6.029,13.3026,4.60082,2470.67,2023-6-28T10:43:04Z
2023-06-28T08:43:52Z,42.805,6.029,13.3023,4.60084,2470.646,2023-6-28T10:46:07Z
2023-06-28T08:46:55Z,42.805,6.029,13.3020,4.60082,2470.624,2023-6-28T10:49:10Z
2023-06-28T08:49:58Z,42.805,6.029,13.3022,4.60081,2470.661,2023-6-28T10:52:13Z
2023-06-28T08:53:01Z,42.805,6.029,13.3024,4.60081,2470.684,2023-6-28T10:55:16Z
2023-06-28T08:56:04Z,42.805,6.029,13.3020,4.60082,2470.646,2023-6-28T10:58:19Z
2023-06-28T08:59:07Z,42.805,6.029,13.3024,4.60083,2470.646,2023-6-28T11:01:22Z
2023-06-28T09:02:10Z,42.805,6.029,13.3021,4.60083,2470.661,2023-6-28T11:04:26Z
2023-06-28T09:05:13Z,42.805,6.029,13.3025,4.60082,2470.637,2023-6-28T11:07:29Z
2023-06-28T09:08:16Z,42.805,6.029,13.3023,4.60081,2470.646,2023-6-28T11:10:32Z
2023-06-28T09:11:20Z,42.805,6.029,13.3021,4.60081,2470.624,2023-6-28T11:13:35Z
2023-06-28T09:14:23Z,42.805,6.029,13.3021,4.60082,2470.646,2023-6-28T11:16:38Z
2023-06-28T09:17:26Z,42.805,6.029,13.3022,4.60081,2470.624,2023-6-28T11:19:41Z
2023-06-28T09:20:29Z,42.805,6.029,13.3021,4.60082,2470.624,2023-6-28T11:22:44Z
2023-06-28T09:23:32Z,42.805,6.029,13.3023,4.60082,2470.661,2023-6-28T11:25:47Z
2023-06-28T09:26:35Z,42.805,6.029,13.3027,4.60081,2470.586,2023-6-28T11:28:50Z
2023-06-28T09:29:38Z,42.805,6.029,13.3021,4.60081,2470.661,2023-6-28T11:31:53Z
2023-06-28T09:32:41Z,42.805,6.029,13.3024,4.60084,2470.624,2023-6-28T11:34:56Z
2023-06-28T09:35:44Z,42.805,6.029,13.3022,4.60082,2470.624,2023-6-28T11:37:59Z
2023-06-28T09:38:47Z,42.805,6.029,13.3026,4.60082,2470.646,2023-6-28T11:41:03Z
2023-06-28T09:41:50Z,42.805,6.029,13.3023,4.60081,2470.624,2023-6-28T11:44:06Z
2023-06-28T09:44:53Z,42.805,6.029,13.3024,4.60082,2470.624,2023-6-28T11:47:09Z
2023-06-28T09:47:57Z,42.805,6.029,13.3023,4.60082,2470.646,2023-6-28T11:50:12Z
2023-06-28T09:51:00Z,42.805,6.029,13.3020,4.60081,2470.646,2023-6-28T11:53:15Z
2023-06-28T09:54:03Z,42.805,6.029,13.3023,4.60080,2470.646,2023-6-28T11:56:18Z
2023-06-28T09:57:06Z,42.805,6.029,13.3024,4.60080,2470.646,2023-6-28T11:59:21Z
2023-06-28T10:00:09Z,42.805,6.029,13.3021,4.60081,2470.661,2023-6-28T12:02:24Z
2023-06-28T10:03:12Z,42.805,6.029,13.3024,4.60081,2470.661,2023-6-28T12:05:27Z
2023-06-28T10:06:15Z,42.805,6.029,13.3026,4.60081,2470.661,2023-6-28T12:08:30Z
2023-06-28T10:09:18Z,42.805,6.029,13.3024,4.60082,2470.661,2023-6-28T12:11:33Z
2023-06-28T10:12:21Z,42.805,6.029,13.3022,4.60081,2470.646,2023-6-28T12:14:36Z
2023-06-28T10:15:24Z,42.805,6.029,13.3020,4.60081,2470.646,2023-6-28T12:17:40Z
2023-06-28T10:18:27Z,42.805,6.029,13.3022,4.60081,2470.624,2023-6-28T12:20:43Z
2023-06-28T10:21:30Z,42.805,6.029,13.3026,4.60082,2470.67,2023-6-28T12:23:46Z
2023-06-28T10:24:34Z,42.805,6.029,13.3024,4.60079,2470.67,2023-6-28T12:26:49Z
2023-06-28T10:27:37Z,42.805,6.029,13.3026,4.60081,2470.646,2023-6-28T12:29:52Z
2023-06-28T10:30:38Z,42.805,6.029,13.3024,4.60081,2470.67,2023-6-28T12:32:53Z
2023-06-28T10:33:41Z,42.805,6.029,13.3024,4.60081,2470.646,2023-6-28T12:35:56Z
2023-06-28T10:36:44Z,42.805,6.029,13.3021,4.60081,2470.684,2023-6-28T12:38:59Z
2023-06-28T10:39:47Z,42.805,6.029,13.3025,4.60081,2470.67,2023-6-28T12:42:03Z
2023-06-28T10:42:50Z,42.805,6.029,13.3021,4.60082,2470.684,2023-6-28T12:45:06Z
2023-06-28T10:45:53Z,42.805,6.029,13.3024,4.60081,2470.67,2023-6-28T12:48:09Z
2023-06-28T10:48:57Z,42.805,6.029,13.3023,4.60081,2470.646,2023-6-28T12:51:12Z
2023-06-28T10:52:00Z,42.805,6.029,13.3021,4.60081,2470.67,2023-6-28T12:54:15Z
2023-06-28T10:55:03Z,42.805,6.029,13.3023,4.60081,2470.67,2023-6-28T12:57:18Z
2023-06-28T10:58:06Z,42.805,6.029,13.3025,4.60081,2470.661,2023-6-28T13:00:21Z
2023-06-28T11:01:09Z,42.805,6.029,13.3020,4.60081,2470.684,2023-6-28T13:03:24Z
2023-06-28T11:04:12Z,42.805,6.029,13.3024,4.60080,2470.684,2023-6-28T13:06:27Z
2023-06-28T11:07:15Z,42.805,6.029,13.3021,4.60081,2470.707,2023-6-28T13:09:30Z
2023-06-28T11:10:18Z,42.805,6.029,13.3024,4.60081,2470.67,2023-6-28T13:12:33Z
2023-06-28T11:13:21Z,42.805,6.029,13.3022,4.60081,2470.74,2023-6-28T13:15:37Z
2023-06-28T11:16:24Z,42.805,6.029,13.3024,4.60080,2470.67,2023-6-28T13:18:40Z
2023-06-28T11:19:27Z,42.805,6.029,13.3026,4.60080,2470.646,2023-6-28T13:21:43Z
2023-06-28T11:22:31Z,42.805,6.029,13.3021,4.60081,2470.693,2023-6-28T13:24:46Z
2023-06-28T11:25:34Z,42.805,6.029,13.3024,4.60082,2470.707,2023-6-28T13:27:49Z
2023-06-28T11:28:37Z,42.805,6.029,13.3023,4.60081,2470.693,2023-6-28T13:30:52Z
2023-06-28T11:31:40Z,42.805,6.029,13.3023,4.60081,2470.67,2023-6-28T13:33:55Z
2023-06-28T11:34:43Z,42.805,6.029,13.3025,4.60081,2470.684,2023-6-28T13:36:58Z
2023-06-28T11:37:46Z,42.805,6.029,13.3023,4.60081,2470.656,2023-6-28T13:40:01Z
2023-06-28T11:40:49Z,42.805,6.029,13.3023,4.60081,2470.67,2023-6-28T13:43:04Z
2023-06-28T11:43:52Z,42.805,6.029,13.3024,4.60081,2470.693,2023-6-28T13:46:07Z
2023-06-28T11:46:55Z,42.805,6.029,13.3024,4.60080,2470.693,2023-6-28T13:49:10Z
2023-06-28T11:49:58Z,42.805,6.029,13.3023,4.60081,2470.707,2023-6-28T13:52:14Z
2023-06-28T11:53:01Z,42.805,6.029,13.3019,4.60081,2470.693,2023-6-28T13:55:17Z
2023-06-28T11:56:04Z,42.805,6.029,13.3024,4.60080,2470.693,2023-6-28T13:58:20Z
2023-06-28T11:59:08Z,42.805,6.029,13.3021,4.60080,2470.707,2023-6-28T14:01:23Z
2023-06-28T12:02:11Z,42.805,6.029,13.3024,4.60080,2470.693,2023-6-28T14:04:26Z
2023-06-28T12:05:14Z,42.805,6.029,13.3023,4.60080,2470.67,2023-6-28T14:07:29Z
2023-06-28T12:08:17Z,42.805,6.029,13.3021,4.60080,2470.717,2023-6-28T14:10:32Z
2023-06-28T12:11:20Z,42.805,6.029,13.3021,4.60080,2470.693,2023-6-28T14:13:35Z
2023-06-28T12:14:23Z,42.805,6.029,13.3022,4.60080,2470.717,2023-6-28T14:16:38Z
2023-06-28T12:17:26Z,42.805,6.029,13.3023,4.60080,2470.717,2023-6-28T14:19:41Z
2023-06-28T12:20:29Z,42.805,6.029,13.3021,4.60079,2470.693,2023-6-28T14:22:44Z
2023-06-28T12:23:32Z,42.805,6.029,13.3028,4.60081,2470.693,2023-6-28T14:25:48Z
2023-06-28T12:26:35Z,42.805,6.029,13.3020,4.60080,2470.717,2023-6-28T14:28:51Z
2023-06-28T12:29:38Z,42.805,6.029,13.3021,4.60079,2470.717,2023-6-28T14:31:54Z
2023-06-28T12:32:42Z,42.805,6.029,13.3024,4.60080,2470.693,2023-6-28T14:34:57Z
2023-06-28T12:35:45Z,42.805,6.029,13.3022,4.60081,2470.693,2023-6-28T14:38:00Z
2023-06-28T12:38:48Z,42.805,6.029,13.3022,4.60082,2470.73,2023-6-28T14:41:03Z
2023-06-28T12:41:51Z,42.805,6.029,13.3024,4.60081,2470.693,2023-6-28T14:44:06Z
2023-06-28T12:44:54Z,42.805,6.029,13.3022,4.60081,2470.679,2023-6-28T14:47:09Z
2023-06-28T12:47:57Z,42.805,6.029,13.3023,4.60080,2470.717,2023-6-28T14:50:12Z
2023-06-28T12:51:00Z,42.805,6.029,13.3021,4.60081,2470.693,2023-6-28T14:53:15Z
2023-06-28T12:54:03Z,42.805,6.029,13.3022,4.60079,2470.707,2023-6-28T14:56:18Z
2023-06-28T12:57:06Z,42.805,6.029,13.3025,4.60081,2470.74,2023-6-28T14:59:21Z
2023-06-28T13:00:09Z,42.805,6.029,13.3022,4.60081,2470.707,2023-6-28T15:02:25Z
2023-06-28T13:03:12Z,42.805,6.029,13.3024,4.60080,2470.693,2023-6-28T15:05:28Z
2023-06-28T13:06:16Z,42.805,6.029,13.3020,4.60081,2470.717,2023-6-28T15:08:31Z
2023-06-28T13:09:19Z,42.805,6.029,13.3023,4.60080,2470.693,2023-6-28T15:11:34Z
2023-06-28T13:12:22Z,42.805,6.029,13.3021,4.60081,2470.717,2023-6-28T15:14:37Z
2023-06-28T13:15:25Z,42.805,6.029,13.3022,4.60080,2470.73,2023-6-28T15:17:40Z
2023-06-28T13:18:28Z,42.805,6.029,13.3022,4.60080,2470.717,2023-6-28T15:20:43Z
2023-06-28T13:21:31Z,42.805,6.029,13.3024,4.60081,2470.707,2023-6-28T15:23:46Z
2023-06-28T13:24:34Z,42.805,6.029,13.3025,4.60080,2470.754,2023-6-28T15:26:49Z
2023-06-28T13:27:37Z,42.805,6.029,13.3021,4.60080,2470.717,2023-6-28T15:29:52Z
2023-06-28T13:30:40Z,42.805,6.029,13.3024,4.60080,2470.754,2023-6-28T15:32:55Z
2023-06-28T13:33:43Z,42.805,6.029,13.3024,4.60080,2470.763,2023-6-28T15:35:59Z
2023-06-28T13:36:46Z,42.805,6.029,13.3021,4.60080,2470.717,2023-6-28T15:39:02Z
2023-06-28T13:39:50Z,42.805,6.029,13.3019,4.60080,2470.717,2023-6-28T15:42:05Z
2023-06-28T13:42:53Z,42.805,6.029,13.3022,4.60079,2470.754,2023-6-28T15:45:08Z
2023-06-28T13:45:56Z,42.805,6.029,13.3022,4.60079,2470.74,2023-6-28T15:48:11Z
2023-06-28T13:48:59Z,42.805,6.029,13.3019,4.60079,2470.763,2023-6-28T15:51:14Z
2023-06-28T13:52:02Z,42.805,6.029,13.3026,4.60079,2470.777,2023-6-28T15:54:17Z
2023-06-28T13:55:05Z,42.805,6.029,13.3021,4.60080,2470.74,2023-6-28T15:57:20Z
2023-06-28T13:58:08Z,42.805,6.029,13.3024,4.60080,2470.763,2023-6-28T16:00:23Z
2023-06-28T14:01:11Z,42.805,6.029,13.3022,4.60080,2470.777,2023-6-28T16:03:26Z
2023-06-28T14:04:14Z,42.805,6.029,13.3024,4.60081,2470.763,2023-6-28T16:06:29Z
2023-06-28T14:07:17Z,42.805,6.029,13.3024,4.60081,2470.74,2023-6-28T16:09:33Z
2023-06-28T14:10:20Z,42.805,6.029,13.3021,4.60080,2470.703,2023-6-28T16:12:36Z
2023-06-28T14:13:23Z,42.805,6.029,13.3022,4.60081,2470.74,2023-6-28T16:15:39Z
2023-06-28T14:16:27Z,42.805,6.029,13.3024,4.60081,2470.693,2023-6-28T16:18:42Z
2023-06-28T14:19:30Z,42.805,6.029,13.3022,4.60081,2470.754,2023-6-28T16:21:45Z
2023-06-28T14:22:33Z,42.805,6.029,13.3021,4.60079,2470.763,2023-6-28T16:24:48Z
2023-06-28T14:25:36Z,42.805,6.029,13.3019,4.60081,2470.763,2023-6-28T16:27:51Z
2023-06-28T14:28:39Z,42.805,6.029,13.3024,4.60080,2470.74,2023-6-28T16:30:54Z
2023-06-28T14:31:42Z,42.805,6.029,13.3022,4.60079,2470.74,2023-6-28T16:33:57Z
2023-06-28T14:34:45Z,42.805,6.029,13.3018,4.60080,2470.763,2023-6-28T16:37:00Z
2023-06-28T14:37:48Z,42.805,6.029,13.3023,4.60079,2470.777,2023-6-28T16:40:03Z
2023-06-28T14:40:51Z,42.805,6.029,13.3024,4.60079,2470.74,2023-6-28T16:43:07Z
2023-06-28T14:43:54Z,42.805,6.029,13.3023,4.60079,2470.763,2023-6-28T16:46:10Z
2023-06-28T14:46:57Z,42.805,6.029,13.3023,4.60081,2470.787,2023-6-28T16:49:13Z
2023-06-28T14:50:01Z,42.805,6.029,13.3024,4.60081,2470.754,2023-6-28T16:52:16Z
2023-06-28T14:53:04Z,42.805,6.029,13.3023,4.60079,2470.763,2023-6-28T16:55:19Z
2023-06-28T14:56:07Z,42.805,6.029,13.3024,4.60081,2470.754,2023-6-28T16:58:22Z
2023-06-28T14:59:10Z,42.805,6.029,13.3024,4.60080,2470.763,2023-6-28T17:01:25Z
2023-06-28T15:02:13Z,42.805,6.029,13.3022,4.60079,2470.73,2023-6-28T17:04:28Z
2023-06-28T15:05:16Z,42.805,6.029,13.3025,4.60081,2470.777,2023-6-28T17:07:31Z
2023-06-28T15:08:19Z,42.805,6.029,13.3024,4.60080,2470.74,2023-6-28T17:10:34Z
2023-06-28T15:11:22Z,42.805,6.029,13.3021,4.60079,2470.74,2023-6-28T17:13:37Z
2023-06-28T15:14:25Z,42.805,6.029,13.3021,4.60080,2470.763,2023-6-28T17:16:40Z